Погода в Тягуне

Россия / Алтайский край     53°56′58″N   85°39′29″E
темп.,
°C
ветер,
м/с
пор.,
м/с
влажн.,
%
обл.,
%
осадки,
мм/ч
давл.,
гПа
погр.,
м
20 июня, вс
вс2001:00+12зсз1499100 2.8 1003379
04:00+10з4699100 0.4 1005422
07:00+10ссз1398100 1.4 1005299
10:00+9зсз3699100 7.6 1006326
13:00+9з3598100 12.8 1008526
16:00+8з3798100 0.3 1009510
19:00+9юз479289 0.6 1011726
22:00+7ююз3109847 0.0 1012374
21 июня, пн
пн2101:00+7ю31096100 0.0 1012389
04:00+6ююв311954 0.0 1011330
07:00+8юв311820 0.0 1010326
10:00+15ююв583984 0.0 10081392
13:00+15ююв51247100 0.0 10081884
16:00+10ю3994100 0.6 1010789
19:00+10ююз3689100 0.6 1010512
22:00+9юв2398100 0.0 100986
22 июня, вт
вт2201:00+8юв2699100 0.0 1009200
04:00+9юв139980 0.0 1008129
07:00+9в1296100 0.1 100790
10:00+11всв0198100 1.3 100697
13:00+12ююз5895100 3.0 10071045
16:00+10ююз61093100 1.1 10081041
19:00+8юз51299100 4.0 1011924
22:00+8ю289927 0.1 1012309
23 июня, ср
ср2301:00+7ю31099100 0.3 1012411
04:00+8ююз3999100 0.2 1011497
07:00+8ююз4899100 0.3 1012629
10:00+8ююз3899100 0.4 1013761
13:00+10юз369889 1.3 1013565
16:00+12зюз348381 1.0 1013954
19:00+11зюз249280 2.1 1013427
22:00+7зюз00953 0.1 101310
24 июня, чт
чт2401:00+6ю0095100 0.1 101410
04:00+5вюв119592 0.0 101210
07:00+8ссв019487 0.0 101259
10:00+14с2263100 0.1 10101014
13:00+14с1171100 1.0 10101021
16:00+14св1176100 1.2 1010833
19:00+13ссз128979 2.6 1010495
22:00+9ссв1195100 1.8 101211